Flag for Germany Weather past 2 weeks in Memmingen, Bavaria, Germany

Now
56 °F

Overcast.


Feels Like: 56 °F
Forecast: 44 / 64 °F
Wind: 1 mph from East

Location: Kempten

Current Time: Oct 1, 2014 at 10:21:41 PM

Latest Report: Oct 1, 2014 at 10:00 PM


Visibility: 5 mi

Pressure: 30.35 "Hg

Humidity: 95%

Dew point: 54 °F

Location of MemmingenLocation

Historic Weather in Memmingen — Graph

°F

Memmingen temperature yesterday

Maximum temperature yesterday: 65 °F (at 1:00 PM)
Minimum temperature yesterday: 52 °F (at 3:00 AM)
Average temperature yesterday: 58 °F

Past Weeks' High & Low Weather Summary

 TemperatureHumidityPressure
High75 °F (Sep 19, 3:00 PM)100% (Sep 28, 7:00 AM)30.40 "Hg (Sep 28, 7:00 AM)
Low34 °F (Sep 23, 7:00 AM)38% (Sep 18, 2:00 PM)29.79 "Hg (Sep 17, 4:00 PM)
Average56 °F82%30.13 "Hg
* Reported Sep 16 9:00 PM — Oct 1 9:00 PM, Memmingen, Weather by CustomWeather, © 2014

Note: Actual official high and low records may vary slightly from our data, if they occured in-between our weather recording intervals... More about our weather records

Advertising

Memmingen weather history for previous 24 hours

 ConditionsComfort  
Time TempWeatherWind HumidityBarometerVisibility
9:00 PM
Oct 1
55 °FFog.No wind96%30.34 "Hg3 mi
8:00 PM55 °FFog.1 mph95%30.33 "Hg4 mi
7:00 PM58 °FPassing clouds.1 mph90%30.30 "Hg6 mi
6:00 PM62 °FPartly sunny.1 mph78%30.27 "Hg8 mi
4:00 PM63 °FOvercast.2 mph76%30.27 "Hg8 mi
3:00 PM65 °FScattered clouds.2 mph63%30.26 "Hg14 mi
2:00 PM62 °FPartly sunny.1 mph76%30.28 "Hg11 mi
1:00 PM63 °FScattered clouds.1 mph72%30.28 "Hg8 mi
12:00 PM62 °FScattered clouds.1 mph81%30.29 "Hg6 mi
11:00 AM58 °FFog.2 mph93%30.30 "Hg3 mi
10:00 AM57 °FLow clouds.1 mph98%30.29 "Hg2 mi
9:00 AM57 °FLight rain. Low clouds.1 mph98%30.29 "Hg1 mi
8:00 AM56 °FLight rain. Low clouds.No wind98%30.28 "Hg1 mi
7:00 AM56 °FRain. Low clouds.No wind98%30.28 "Hg1 mi
6:00 AM56 °FOvercast.1 mph98%30.28 "Hg2 mi
5:00 AM56 °FLight rain. Overcast.No wind98%30.29 "Hg2 mi
4:00 AM56 °FLight rain. Overcast.1 mph98%30.29 "Hg2 mi
3:00 AM56 °FLight rain. Overcast.1 mph98%30.29 "Hg2 mi
2:00 AM57 °FLight rain. Low clouds.1 mph98%30.30 "Hg2 mi
1:00 AM57 °FLight rain. Passing clouds.No wind98%30.30 "Hg1 mi
12:00 AM56 °FDrizzle. Low clouds.No wind98%30.31 "Hg1 mi
11:00 PM
Sep 30
57 °FLight rain. Low clouds.No wind98%30.32 "Hg1 mi
10:00 PM57 °FDrizzle. Overcast.1 mph98%30.32 "Hg2 mi
Weather by CustomWeather, © 2014

See weather overviewHow to use our weather pages